DW2465 Weather Reports


time (UTC)temp
C
wind
direction
speed
KPH
gust
KPH
rain 1hr
cm
rain 24hr
cm
rain mn
cm
humidity
%
barometer
mb
20260506160026 3 260 0.0 0.0 0.00 0.00 0.00 57 1017.3
20260506154524 3 269 0.0 0.0 0.00 0.00 0.00 58 1017.3
20260506153057 3 317 0.0 0.0 0.00 0.00 0.00 58 1017.2
20260506151552 2 319 0.0 0.0 0.00 0.00 0.00 58 1017.1
20260506150049 2 328 0.0 0.0 0.00 0.00 0.00 59 1017.1
20260506144548 2 283 0.0 0.0 0.00 0.00 0.00 59 1017.1
20260506143047 2 312 0.0 0.0 0.00 0.00 0.00 59 1017.2
20260506141547 2 360 0.0 0.0 0.00 0.00 0.00 60 1017.2
20260506140043 2 278 0.0 0.0 0.00 0.00 0.00 61 1017.1
20260506134541 2 306 0.0 0.0 0.00 0.00 0.00 62 1017.0
20260506133041 2 304 0.0 0.0 0.00 0.00 0.00 62 1016.9
20260506131548 2 306 0.0 0.0 0.00 0.00 0.00 64 1016.7
20260506130053 2 294 0.0 0.0 0.00 0.00 0.00 64 1016.7
20260506124535 1 306 0.0 0.0 0.00 0.00 0.00 65 1016.5
20260506123034 1 273 0.0 0.0 0.00 0.00 0.00 66 1016.3
20260506121534 1 301 0.0 0.0 0.00 0.00 0.00 68 1016.1
20260506120032 1 286 0.0 0.0 0.00 0.00 0.00 70 1015.7
20260506114533 0 325 0.0 0.0 0.00 0.00 0.00 72 1015.6
20260506113028 0 301 0.0 0.0 0.00 0.00 0.00 73 1015.3
20260506111527 0 294 0.0 0.0 0.00 0.00 0.00 73 1015.3
20260506110027 0 284 0.0 0.0 0.00 0.00 0.00 74 1015.5
20260506104527 0 277 0.0 0.0 0.00 0.00 0.00 75 1015.6
20260506103025 0 265 0.0 0.0 0.00 0.00 0.00 75 1015.5
20260506101533 0 271 0.0 0.0 0.00 0.00 0.00 74 1015.0
20260506100017 0 275 0.0 0.0 0.00 0.00 0.00 73 1014.9
20260506094522 0 272 0.0 0.0 0.00 0.00 0.00 73 1014.9
20260506093020 0 261 0.0 0.0 0.00 0.00 0.00 73 1015.0
20260506091516 0 263 0.0 0.0 0.00 0.00 0.00 73 1015.0
20260506090012 0 290 0.0 0.0 0.00 0.00 0.00 72 1014.9
20260506084510 0 292 0.0 0.0 0.00 0.00 0.00 71 1014.8
20260506083006 0 292 0.0 0.0 0.00 0.00 0.00 70 1014.6
20260506081505 0 303 0.0 0.0 0.00 0.00 0.00 69 1014.8
20260506073039 1 304 0.0 0.0 0.00 0.00 0.00 65 1014.4
20260506071525 1 296 0.0 0.0 0.00 0.00 0.00 66 1014.2
20260506061548 1 314 0.0 0.0 0.00 0.00 0.00 62 1014.4
20260506044618 3 315 0.0 0.0 0.00 0.00 0.00 59 1013.6
20260506043035 3 305 0.0 0.0 0.00 0.00 0.00 58 1013.6
20260506041534 3 307 0.0 0.0 0.00 0.00 0.00 58 1013.6
20260506040035 3 281 0.0 0.0 0.00 0.00 0.00 57 1013.7
20260506034559 3 302 0.0 0.0 0.00 0.00 0.00 57 1013.7
20260506033032 4 299 0.0 0.0 0.00 0.00 0.00 56 1013.4
20260506031529 4 279 0.0 0.0 0.00 0.00 0.00 55 1013.3
20260506030026 5 309 0.0 0.0 0.00 0.00 0.00 54 1013.2
20260506024522 5 294 0.0 0.0 0.00 0.00 0.00 53 1012.9
20260506023020 5 287 0.0 0.0 0.00 0.00 0.00 52 1012.7
20260506021519 5 315 0.0 0.0 0.00 0.00 0.00 51 1012.6
20260506020017 6 274 0.0 0.0 0.00 0.00 0.00 50 1012.3
20260506014517 6 281 0.0 0.0 0.00 0.00 0.00 48 1012.1
20260506013012 6 318 0.0 0.0 0.00 0.00 0.00 47 1011.9
20260506011514 6 293 0.0 0.0 0.00 0.00 0.00 45 1011.6
20260506010012 7 267 0.0 0.0 0.00 0.00 0.00 44 1011.7
20260506004510 7 321 0.0 0.0 0.00 0.00 0.00 44 1011.5
20260506003005 7 333 0.0 0.0 0.00 0.00 0.00 43 1011.3
20260506001504 8 267 0.0 0.0 0.00 0.00 0.00 42 1011.1
20260506000002 8 275 0.0 0.0 0.00 0.00 0.00 42 1011.0
20260505234553 8 326 0.0 0.0 0.00 0.00 0.00 41 1010.9
20260505233036 8 223 0.0 0.0 0.00 0.00 0.00 40 1010.6
20260505231532 8 254 0.0 0.0 0.00 0.00 0.00 40 1010.5
20260505230037 8 244 0.0 0.0 0.00 0.00 0.00 41 1010.4
20260505224528 8 269 0.0 0.0 0.00 0.00 0.00 41 1010.5
20260505223027 8 272 0.0 0.0 0.00 0.00 0.00 41 1010.6
20260505221525 8 279 0.0 0.0 0.00 0.00 0.00 42 1010.4
20260505220033 8 298 0.0 0.0 0.00 0.00 0.00 42 1010.5
20260505214529 8 244 0.0 0.0 0.00 0.00 0.00 42 1010.7
20260505213025 8 322 0.0 0.0 0.00 0.00 0.00 41 1010.9
20260505211519 8 351 0.0 0.0 0.00 0.00 0.00 41 1010.6
20260505210019 8 269 0.0 0.0 0.00 0.00 0.00 40 1010.6
20260505204518 8 294 0.0 0.0 0.00 0.00 0.00 41 1010.7
20260505203017 8 321 0.0 0.0 0.00 0.00 0.00 42 1010.7
20260505201518 8 269 0.0 0.0 0.00 0.00 0.00 41 1010.7
20260505200013 8 235 0.0 0.0 0.00 0.00 0.00 42 1010.6
20260505194527 8 275 0.0 0.0 0.00 0.00 0.00 42 1010.6
20260505193029 8 254 0.0 0.0 0.00 0.00 0.00 41 1010.6
20260505191509 8 287 0.0 0.0 0.00 0.00 0.00 41 1010.7
20260505190038 8 295 0.0 0.0 0.00 0.00 0.00 42 1010.8
20260505184536 8 276 0.0 0.0 0.00 0.00 0.00 42 1010.6
20260505183032 7 259 0.0 0.0 0.00 0.00 0.00 42 1010.9
20260505181531 8 279 0.0 0.0 0.00 0.00 0.00 42 1010.9
20260505180042 7 245 0.0 0.0 0.00 0.00 0.00 44 1010.8
20260505174537 7 266 0.0 0.0 0.00 0.00 0.00 44 1010.8
20260505173057 7 290 0.0 0.0 0.00 0.00 0.00 44 1010.8
20260505171557 7 290 0.0 0.0 0.00 0.00 0.00 43 1010.9
20260505170129 7 286 0.0 0.0 0.00 0.00 0.00 42 1010.9
20260505164553 7 252 0.0 0.0 0.00 0.00 0.00 43 1010.9
20260505163050 7 311 0.0 0.0 0.00 0.00 0.00 42 1010.9
20260505161557 7 299 0.0 0.0 0.00 0.00 0.00 45 1010.8